sat.trackr.live / text

‹ back to catalog

STARLINK-36212

NORAD 67216 · 2025-304AA

PAYLOAD ACTIVE UNKNOWN

§ Identity

Operator
Country
US
Launch date
2025-12-17
Launch site
AFWTR
Launch vehicle
Mass (kg)
RCS (m²)

Purposes: comms

External: N2YO · Heavens-Above · Gunter

§ Orbital elements

Epoch: 2026-05-25T00:03:52.663104Z

Period
96.11 min
Inclination
70.0023°
Eccentricity
0.0002437
Mean motion
14.98338016 rev/d
Perigee alt
570.3 km
Apogee alt
573.7 km
Semi-major
6,950.2 km
B*
2.6490e-4
RAAN
342.1184°
Arg perigee
269.1240°
Mean anomaly
90.9639°
Rev number
2,531

§ Raw data

STARLINK-362121 67216U 25304AA  26145.00269286  .00003070  00000+0  26490-3 0  99902 67216  70.0023 342.1184 0002437 269.1240  90.9639 14.98338016 25319

JSON: /api/v1/satellites/67216 · /tle

For live sub-satellite position, see the globe view (requires WebGL).

§ Visibility from observer

Set your observer location to see the next 7 days of passes ≥ 10°. The values pass through the URL so the page stays shareable.

No JS? Fill the form by hand. The geolocation button needs JavaScript.